[[{"header":{"parameterUnit":"m.s-1","parameterCategory":2,"la1":30.2991,"la2":30.254,"lo1":-89.0895,"lo2":-89.0444,"dy":0.0017,"dx":0.0017,"nx":28,"ny":28,"refTime":"2024-04-18T21:00:00:Z","depth":"0","parameterNumber":2,"parameterNumberName":"U-component_of_CURRENTS"},"data":[0,0,0,0,0,0,0,0,0,0,0,0,0,0,0,0,0,0,0,0,0,0,0,0,0,0,0,0,0,0,0,0,0,0,0,0,0,0,0,0,0,0,0,0,0,0,0,0,0,0,0,0,0,0,0,0,0,0,0.1107,0.1108,0,0.114,0.114,0.114,0.1129,0.1128,0.1128,0.1127,0.119,0.1192,0.1194,0,0,0,0,0,0,0,0,0,0,0,0,0,0.1043,0.1044,0.1107,0.1108,0.1108,0.114,0.114,0.114,0.1129,0.1128,0.1128,0.1127,0.1189,0.1192,0.1194,0,0,0,0,0,0,0,0,0,0,0,0,0,0.107,0.1044,0.1107,0.1109,0.111,0.114,0.114,0.114,0.1129,0.1128,0.1127,0.1127,0.1189,0.1192,0.1195,0.1226,0,0,0.1204,0.1205,0,0,0,0,0,0,0,0,0.1068,0.1071,0.1108,0.1109,0.111,0.1133,0.1141,0.1172,0.1129,0.1118,0.1127,0.1127,0.1177,0.1181,0.1183,0.1229,0.1231,0.1204,0.1206,0.1208,0.1208,0,0,0,0,0,0,0,0.1066,0.107,0.1116,0.1109,0.111,0.1112,0.1115,0.1146,0.1148,0.1119,0.1119,0.1129,0.1177,0.118,0.1184,0.1232,0.1204,0.1207,0.1209,0.121,0.1272,0.1272,0,0,0,0,0,0,0.107,0.1068,0.1115,0.1118,0.1091,0.1114,0.1117,0.1123,0.1147,0.1151,0.1129,0.1128,0.1175,0.118,0.1186,0.1209,0.1208,0.121,0.1212,0.1273,0.1272,0.1272,0,0,0,0,0,0,0.1068,0.1074,0.1114,0.1097,0.1103,0.1116,0.1123,0.1124,0.1123,0.1155,0.1159,0.1127,0.1174,0.1182,0.1205,0.1212,0.1212,0.1215,0.1273,0.1273,0.1272,0.1266,0,0,0,0,0,0,0.1066,0.1073,0.1078,0.1097,0.1104,0.1124,0.1124,0.1125,0.1132,0.1131,0.1155,0.116,0.1174,0.12,0.1208,0.1217,0.1217,0.1273,0.1273,0.1272,0.1266,0.1265,0.1265,0,0,0,0,0,0.1064,0.1072,0.1078,0.1084,0.1111,0.1125,0.1128,0.1133,0.1132,0.1129,0.1145,0.1159,0.1203,0.1203,0.1212,0.1222,0.1273,0.1273,0.1272,0.1267,0.1266,0.1265,0,0,0,0,0,0,0.1045,0.1072,0.1079,0.1094,0.1107,0.1124,0.1128,0.1133,0.1142,0.1143,0.1164,0.1171,0.1194,0.1206,0.1205,0.1236,0.1238,0.124,0.1231,0.123,0.1229,0.1223,0.122,0,0,0,0,0,0.1046,0.1059,0.1081,0.1093,0.1099,0.1113,0.1121,0.1125,0.114,0.1142,0.116,0.1178,0.1201,0.1213,0.1233,0.1257,0.1266,0.1265,0.1264,0.1263,0.1263,0.1278,0.1279,0.1271,0.1271,0.1271,0,0,0.1048,0.1061,0.1072,0.109,0.11,0.1112,0.1114,0.1125,0.1135,0.1151,0.1166,0.1182,0.1206,0.1226,0.1237,0.1238,0.127,0.1263,0.1262,0.1262,0.1278,0.1279,0.128,0.1271,0.1271,0.1271,0,0,0.1051,0.1063,0.1073,0.1082,0.1099,0.111,0.1112,0.1128,0.1132,0.1153,0.1164,0.1178,0.1214,0.1226,0.124,0.1247,0.1266,0.1254,0.1249,0.1263,0.1264,0.1265,0.1277,0.1279,0.1252,0.1252,0.1252,0,0.1046,0.1066,0.1077,0.1083,0.1095,0.1108,0.1119,0.1127,0.1148,0.1157,0.1155,0.1197,0.1213,0.124,0.1236,0.1247,0.1257,0.1253,0.1263,0.1264,0.1265,0.1277,0.1279,0.1252,0.1252,0.1252,0.1252,0,0.1057,0.1071,0.1075,0.1091,0.1101,0.1113,0.113,0.1138,0.1149,0.116,0.1183,0.12,0.1223,0.1228,0.1236,0.1253,0.1258,0.1262,0.1267,0.1266,0.1278,0.128,0.1252,0.1252,0.1252,0.1252,0,0,0.1051,0.1078,0.108,0.109,0.1108,0.1118,0.1133,0.1154,0.1169,0.1179,0.1198,0.1218,0.1223,0.1237,0.1248,0.1253,0.1265,0.1258,0.1259,0.1271,0.1298,0.1382,0.1393,0.1274,0.1274,0.1275,0.1303,0,0.1056,0.1074,0.1087,0.1107,0.1119,0.1133,0.1149,0.1167,0.1183,0.1202,0.1213,0.1238,0.123,0.1244,0.1247,0.1269,0.1272,0.1257,0.1295,0.1296,0.1373,0.1399,0.1489,0.153,0.1306,0.1306,0.1307,0,0.1064,0.1077,0.1098,0.1122,0.1128,0.1139,0.1169,0.1185,0.1211,0.1224,0.124,0.1253,0.127,0.126,0.1286,0.1279,0.1284,0.1291,0.1293,0.1376,0.1386,0.1495,0.1543,0.1583,0.1311,0.131,0.131,0,0.1063,0.1084,0.1103,0.1111,0.1139,0.1149,0.1164,0.119,0.1209,0.124,0.1261,0.1277,0.1303,0.1304,0.1325,0.1306,0.1355,0.1333,0.1409,0.1414,0.1502,0.1515,0.1598,0.1343,0.1342,0.1342,0.1342,0,0.1067,0.1082,0.1103,0.1115,0.1134,0.1151,0.1175,0.1194,0.1225,0.1256,0.1272,0.1309,0.1316,0.1348,0.134,0.1404,0.1372,0.142,0.1435,0.1502,0.1515,0.1563,0.1518,0.1343,0.1343,0.1343,0.1343,0,0.1067,0.1084,0.1103,0.1128,0.1135,0.1148,0.1177,0.1199,0.1232,0.1274,0.1288,0.1341,0.1411,0.1425,0.1451,0.1453,0.1478,0.1504,0.1586,0.1612,0.1727,0.1677,0.1576,0.1547,0.1593,0.1595,0.1597,0,0.1069,0.1082,0.1105,0.1115,0.1125,0.1146,0.1165,0.1197,0.1226,0.1301,0.1328,0.1413,0.1487,0.1575,0.1632,0.1674,0.1579,0.1743,0.1725,0.1767,0.1721,0.1538,0.1506,0.1827,0.1831,0.1834,0.1836,0,0.1069,0.1077,0.1088,0.1109,0.1126,0.1148,0.1179,0.1201,0.1255,0.1302,0.1388,0.1454,0.1614,0.1742,0.1828,0.1847,0.1724,0.1808,0.1831,0.1904,0.1727,0.1699,0.1761,0.1863,0.1861,0.1859,0.1857,0.1856,0.1059,0.1064,0.1078,0.1095,0.1116,0.1145,0.116,0.121,0.1258,0.1339,0.1416,0.1539,0.1785,0.1961,0.1978,0.2126,0.1926,0.2122,0.2054,0.186,0.1848,0.1978,0.2114,0.2113,0.2112,0.2111,0.211,0,0.1043,0.1053,0.1065,0.1084,0.1099,0.112,0.1166,0.1187,0.1244,0.1371,0.1459,0.1736,0.1955,0.2129,0.2357,0.2364,0.222,0.2342,0.2127,0.208,0.2232,0.227,0.2472,0.2472,0.2472,0.2472,0.2472,0.2472,0.1036,0.1038,0.1046,0.1057,0.1074,0.1093,0.1115,0.1161,0.1251,0.1411,0.1573,0.1704,0.2013,0.2341,0.251,0.2492,0.2324,0.228,0.2162,0.2347,0.2321,0.2296,0.2328,0.2539,0.2539,0.2007,0.2003,0.2]},{"header":{"parameterUnit":"m.s-1","parameterCategory":2,"la1":30.2991,"la2":30.254,"lo1":-89.0895,"lo2":-89.0444,"dy":0.0017,"dx":0.0017,"nx":28,"ny":28,"refTime":"2024-04-18T21:00:00:Z","depth":"0","parameterNumber":3,"parameterNumberName":"V-component_of_CURRENTS"},"data":[0,0,0,0,0,0,0,0,0,0,0,0,0,0,0,0,0,0,0,0,0,0,0,0,0,0,0,0,0,0,0,0,0,0,0,0,0,0,0,0,0,0,0,0,0,0,0,0,0,0,0,0,0,0,0,0,0,0,-0.0046,-0.0046,0,-0.0072,-0.0073,-0.0073,-0.0115,-0.0116,-0.0117,-0.0117,-0.0119,-0.0118,-0.0117,0,0,0,0,0,0,0,0,0,0,0,0,0,0.0023,0.0021,-0.0046,-0.0046,-0.0046,-0.0072,-0.0073,-0.0073,-0.0115,-0.0116,-0.0117,-0.0118,-0.0119,-0.0118,-0.0117,0,0,0,0,0,0,0,0,0,0,0,0,0,-0.0007,0.0021,-0.0046,-0.007,-0.0072,-0.0072,-0.0073,-0.0073,-0.0115,-0.0116,-0.0117,-0.0118,-0.0119,-0.0118,-0.0117,-0.0092,0,0,-0.0115,-0.0114,0,0,0,0,0,0,0,0,-0.0005,-0.001,-0.0066,-0.0068,-0.0071,-0.0091,-0.0049,-0.0078,-0.0115,-0.01,-0.0117,-0.0119,-0.0105,-0.0106,-0.011,-0.0092,-0.0092,-0.0115,-0.0114,-0.0114,-0.0113,0,0,0,0,0,0,0,-0.0003,-0.0008,-0.0057,-0.0066,-0.0069,-0.006,-0.0066,-0.0055,-0.0097,-0.0101,-0.0104,-0.0105,-0.0107,-0.0111,-0.0111,-0.0092,-0.0115,-0.0114,-0.0113,-0.0113,-0.0085,-0.0085,0,0,0,0,0,0,0.0,-0.0007,-0.0057,-0.0058,-0.0038,-0.0061,-0.0067,-0.0084,-0.0098,-0.0101,-0.0104,-0.0107,-0.0112,-0.0112,-0.0111,-0.0102,-0.0114,-0.0113,-0.0112,-0.0085,-0.0085,-0.0085,0,0,0,0,0,0,0.0002,-0.0004,-0.0056,-0.0031,-0.0037,-0.0061,-0.0079,-0.0084,-0.0091,-0.01,-0.0103,-0.0106,-0.0113,-0.0112,-0.0103,-0.0101,-0.0112,-0.0112,-0.0085,-0.0085,-0.0085,-0.007,0,0,0,0,0,0,0.0003,-0.0004,-0.001,-0.0031,-0.0038,-0.0061,-0.0078,-0.0084,-0.0089,-0.0093,-0.0102,-0.0104,-0.0114,-0.0105,-0.0103,-0.01,-0.0111,-0.0086,-0.0085,-0.0085,-0.0071,-0.0069,-0.0068,0,0,0,0,0,0.0006,0.0001,-0.001,-0.0016,-0.0048,-0.0061,-0.0064,-0.0084,-0.0088,-0.0093,-0.0096,-0.0104,-0.0101,-0.0103,-0.0101,-0.0098,-0.0086,-0.0085,-0.0085,-0.0071,-0.0069,-0.0068,0,0,0,0,0,0,0.0023,-0.0005,-0.0017,-0.0033,-0.0047,-0.0068,-0.0069,-0.0078,-0.0084,-0.0085,-0.0093,-0.0094,-0.009,-0.0091,-0.0093,-0.009,-0.0097,-0.0096,-0.0088,-0.0086,-0.0085,-0.0084,-0.011,0,0,0,0,0,0.0027,0.0014,-0.001,-0.0022,-0.0027,-0.0045,-0.0049,-0.0064,-0.0072,-0.0077,-0.0083,-0.0085,-0.0085,-0.0083,-0.0085,-0.0072,-0.0079,-0.0072,-0.007,-0.0069,-0.0068,-0.0075,-0.0074,-0.0083,-0.0083,-0.0083,0,0,0.0034,0.0014,0.0009,-0.0018,-0.003,-0.0033,-0.0051,-0.0059,-0.0062,-0.0072,-0.0073,-0.0078,-0.008,-0.0078,-0.0075,-0.0078,-0.007,-0.0068,-0.0067,-0.0067,-0.0074,-0.0073,-0.0072,-0.0083,-0.0083,-0.0083,0,0,0.0041,0.002,0.0015,0.0005,-0.0012,-0.0023,-0.0023,-0.0041,-0.0051,-0.0047,-0.006,-0.0061,-0.0057,-0.0065,-0.0065,-0.0051,-0.0064,-0.0054,-0.0043,-0.005,-0.0049,-0.0049,-0.0057,-0.0057,-0.0052,-0.0052,-0.0052,0,0.0054,0.0034,0.0014,0.0008,0.0004,-0.0015,-0.0015,-0.0023,-0.0037,-0.004,-0.0047,-0.005,-0.0052,-0.0049,-0.005,-0.0048,-0.0055,-0.0049,-0.0048,-0.0048,-0.0048,-0.0056,-0.0057,-0.0051,-0.0051,-0.0051,-0.0051,0,0.0055,0.0044,0.0043,0.0026,0.002,0.0017,0.0004,-0.0002,-0.0009,-0.0019,-0.0023,-0.0029,-0.0034,-0.0035,-0.0036,-0.0036,-0.0042,-0.0047,-0.0053,-0.0046,-0.0055,-0.0056,-0.005,-0.005,-0.005,-0.005,0,0,0.008,0.005,0.0053,0.0048,0.003,0.0027,0.0024,0.0015,0.0015,0.0001,-0.0,-0.0003,-0.0014,-0.0015,-0.0022,-0.0025,-0.0028,-0.0033,-0.0034,-0.0041,-0.0045,-0.0068,-0.0071,-0.0033,-0.0034,-0.0034,-0.0053,0,0.0091,0.0084,0.0064,0.0068,0.0067,0.0048,0.0048,0.0038,0.0028,0.0022,0.0009,0.0006,-0.0004,-0.0007,-0.0012,-0.0024,-0.0029,-0.0022,-0.005,-0.0051,-0.0073,-0.0073,-0.0048,-0.0065,-0.0054,-0.0054,-0.0054,0,0.0105,0.0097,0.0097,0.0085,0.0084,0.0083,0.0078,0.0074,0.0059,0.0049,0.0036,0.0023,0.0014,0.0005,-0.0016,-0.0011,-0.0026,-0.0037,-0.0038,-0.0065,-0.0076,-0.007,-0.0067,-0.014,-0.0055,-0.0055,-0.0055,0,0.0137,0.0125,0.0124,0.0121,0.0105,0.0103,0.0096,0.0083,0.0083,0.0064,0.0064,0.004,0.0035,0.0011,-0.0014,-0.0015,-0.0039,-0.0044,-0.0079,-0.0081,-0.0069,-0.007,-0.0139,-0.0059,-0.0059,-0.0059,-0.0058,0,0.0157,0.0161,0.0139,0.0143,0.0148,0.0128,0.0133,0.012,0.0109,0.012,0.0082,0.0089,0.0037,0.0017,-0.0011,-0.005,-0.0039,-0.0079,-0.0088,-0.0064,-0.0064,-0.0134,-0.0167,-0.0059,-0.0059,-0.0059,-0.0059,0,0.0185,0.0173,0.0176,0.0164,0.0162,0.0166,0.0158,0.0166,0.0148,0.016,0.0156,0.0125,0.0094,0.0041,-0.0001,-0.0042,-0.0117,-0.0095,-0.0067,-0.0073,-0.0183,-0.0216,-0.0295,-0.0329,-0.0141,-0.0142,-0.0143,0,0.0194,0.0197,0.0195,0.0204,0.0196,0.0199,0.0206,0.0188,0.0195,0.0193,0.0206,0.0172,0.0168,0.0081,-0.0007,-0.0079,-0.0134,-0.0116,-0.0117,-0.0192,-0.0235,-0.0265,-0.029,-0.0092,-0.0092,-0.0092,-0.0092,0,0.0217,0.0215,0.0216,0.023,0.0241,0.0253,0.0258,0.0271,0.0263,0.0277,0.0295,0.0294,0.0203,0.014,0.0013,-0.0045,-0.017,-0.0122,-0.02,-0.0206,-0.0241,-0.0277,-0.0082,-0.0093,-0.0093,-0.0093,-0.0092,-0.0092,0.0234,0.0239,0.0244,0.0255,0.0274,0.0303,0.0322,0.034,0.0365,0.0404,0.0385,0.043,0.032,0.0152,0.0011,-0.0189,-0.0188,-0.0223,-0.0257,-0.0281,-0.0318,-0.0135,-0.016,-0.016,-0.016,-0.0161,-0.0161,0,0.0252,0.0256,0.0271,0.0291,0.0318,0.0322,0.0356,0.0387,0.0437,0.0502,0.0531,0.0578,0.0401,0.0214,-0.0039,-0.0242,-0.0337,-0.0361,-0.0388,-0.0408,-0.0238,-0.0241,-0.0283,-0.0283,-0.0283,-0.0283,-0.0283,-0.0283,0.0262,0.0276,0.0279,0.0325,0.0345,0.0387,0.0415,0.0471,0.0529,0.0659,0.0762,0.0829,0.0804,0.0198,-0.0201,-0.0334,-0.0476,-0.0541,-0.0617,-0.049,-0.048,-0.047,-0.0481,-0.0574,-0.0574,-0.0757,-0.0758,-0.076]}],[{"header":{"parameterUnit":"m.s-1","parameterCategory":2,"la1":30.2991,"la2":30.254,"lo1":-89.0895,"lo2":-89.0444,"dy":0.0017,"dx":0.0017,"nx":28,"ny":28,"refTime":"2024-04-18T21:00:00:Z","depth":"2","parameterNumber":2,"parameterNumberName":"U-component_of_CURRENTS"},"data":[0,0,0,0,0,0,0,0,0,0,0,0,0,0,0,0,0,0,0,0,0,0,0,0,0,0,0,0,0,0,0,0,0,0,0,0,0,0,0,0,0,0,0,0,0,0,0,0,0,0,0,0,0,0,0,0,0,0,-0.0141,-0.0141,0,-0.0126,-0.0126,-0.0126,-0.0098,-0.0098,-0.0098,-0.0097,-0.0073,-0.0072,-0.0072,0,0,0,0,0,0,0,0,0,0,0,0,0,-0.0148,-0.0148,-0.0141,-0.0141,-0.0141,-0.0126,-0.0126,-0.0126,-0.0098,-0.0098,-0.0097,-0.0097,-0.0073,-0.0072,-0.0072,0,0,0,0,0,0,0,0,0,0,0,0,0,-0.0139,-0.0148,-0.0141,-0.0126,-0.0125,-0.0126,-0.0126,-0.0126,-0.0099,-0.0098,-0.0097,-0.0097,-0.0073,-0.0072,-0.0072,-0.0082,0,0,-0.0071,-0.0071,0,0,0,0,0,0,0,0,-0.014,-0.0139,-0.0129,-0.0127,-0.0126,-0.0115,-0.012,-0.0111,-0.0099,-0.0107,-0.0097,-0.0096,-0.0087,-0.0085,-0.0082,-0.0081,-0.008,-0.0071,-0.007,-0.007,-0.007,0,0,0,0,0,0,0,-0.014,-0.0139,-0.0134,-0.0129,-0.0127,-0.0122,-0.0119,-0.0118,-0.01,-0.0106,-0.0105,-0.0105,-0.0086,-0.0083,-0.0082,-0.0079,-0.0071,-0.007,-0.007,-0.007,-0.0053,-0.0053,0,0,0,0,0,0,-0.0145,-0.014,-0.0134,-0.0134,-0.0133,-0.0122,-0.012,-0.0118,-0.01,-0.0097,-0.0106,-0.0104,-0.0084,-0.0082,-0.0081,-0.0058,-0.007,-0.007,-0.007,-0.0053,-0.0053,-0.0053,0,0,0,0,0,0,-0.0145,-0.0145,-0.0135,-0.0137,-0.0136,-0.0123,-0.0121,-0.0118,-0.0106,-0.01,-0.0096,-0.0096,-0.0083,-0.0081,-0.0071,-0.0058,-0.007,-0.0069,-0.0053,-0.0053,-0.0053,-0.0034,0,0,0,0,0,0,-0.0145,-0.0145,-0.0141,-0.0138,-0.0136,-0.0129,-0.0122,-0.0118,-0.0109,-0.0106,-0.0091,-0.0088,-0.0083,-0.0071,-0.007,-0.0058,-0.0069,-0.0054,-0.0053,-0.0053,-0.0035,-0.0033,-0.0031,0,0,0,0,0,-0.0146,-0.0143,-0.0141,-0.014,-0.0133,-0.0129,-0.0127,-0.0115,-0.0109,-0.0103,-0.0092,-0.0088,-0.0068,-0.0071,-0.007,-0.0057,-0.0054,-0.0053,-0.0053,-0.0035,-0.0033,-0.0031,0,0,0,0,0,0,-0.014,-0.014,-0.0138,-0.0134,-0.013,-0.0125,-0.0115,-0.0113,-0.0101,-0.0093,-0.0088,-0.0085,-0.007,-0.007,-0.0073,-0.0051,-0.0059,-0.0059,-0.0047,-0.0045,-0.0043,-0.0036,-0.0069,0,0,0,0,0,-0.014,-0.0138,-0.0137,-0.0132,-0.0128,-0.0122,-0.0118,-0.0111,-0.0103,-0.0096,-0.0088,-0.0078,-0.007,-0.0062,-0.0056,-0.0046,-0.0035,-0.0037,-0.0035,-0.0034,-0.0028,-0.0009,-0.0005,-0.0051,-0.0051,-0.0051,0,0,-0.0137,-0.0136,-0.0134,-0.0131,-0.0123,-0.0117,-0.0117,-0.0105,-0.0099,-0.0096,-0.008,-0.0074,-0.0067,-0.0053,-0.0046,-0.0048,-0.0012,-0.0033,-0.0032,-0.0027,-0.0008,-0.0004,0.0,-0.0051,-0.0051,-0.0051,0,0,-0.013,-0.0127,-0.0121,-0.0116,-0.0108,-0.0107,-0.0104,-0.0096,-0.0088,-0.0079,-0.0072,-0.0059,-0.0049,-0.0038,-0.0033,-0.0021,-0.0006,-0.0018,0.0001,0.0019,0.0023,0.0027,0.006,0.0067,-0.0014,-0.0014,-0.0014,0,-0.0124,-0.012,-0.0119,-0.011,-0.0103,-0.0102,-0.0092,-0.0088,-0.0079,-0.0071,-0.0069,-0.0045,-0.0042,-0.002,-0.0012,-0.0016,0.0003,-0.0007,0.0022,0.0026,0.0029,0.0063,0.007,-0.0013,-0.0013,-0.0013,-0.0013,0,-0.0115,-0.0107,-0.01,-0.0092,-0.0085,-0.0075,-0.0071,-0.0063,-0.0057,-0.0053,-0.0031,-0.0023,-0.0005,-0.0003,-0.0002,0.0026,0.0035,0.002,0.0019,0.0035,0.0069,0.0076,-0.0011,-0.0012,-0.0012,-0.0012,0,0,-0.0105,-0.0097,-0.0092,-0.0085,-0.0073,-0.0067,-0.0054,-0.0045,-0.0031,-0.0022,0.0,0.0013,0.0023,0.0029,0.0035,0.0051,0.0094,0.0051,0.0051,0.0088,0.0153,0.0201,0.0214,0.0087,0.0088,0.0089,0.0171,0,-0.0094,-0.0083,-0.0079,-0.0061,-0.0052,-0.0044,-0.0032,-0.0021,-0.0012,0.0007,0.002,0.0044,0.0033,0.0055,0.0066,0.0084,0.0111,0.0074,0.0128,0.013,0.0174,0.0223,0.0229,0.0307,0.0178,0.0179,0.018,0,-0.0082,-0.0077,-0.006,-0.0045,-0.0038,-0.0024,0.0001,0.0011,0.0033,0.0046,0.0069,0.0079,0.0111,0.0098,0.0144,0.0123,0.0144,0.0156,0.0159,0.0203,0.0191,0.0267,0.0325,0.0192,0.0191,0.019,0.0189,0,-0.0076,-0.006,-0.0048,-0.0042,-0.0025,-0.0007,0.0007,0.0029,0.005,0.0082,0.0111,0.013,0.0167,0.0179,0.0207,0.0181,0.0262,0.0225,0.0292,0.0296,0.0312,0.0315,0.0266,0.0266,0.0266,0.0265,0.0265,0,-0.0067,-0.0053,-0.0041,-0.0031,-0.0006,0.0007,0.0042,0.0058,0.0095,0.0138,0.0141,0.0193,0.0191,0.0233,0.0234,0.0303,0.0288,0.0317,0.0326,0.032,0.0324,0.0222,0.0216,0.0269,0.0268,0.0267,0.0267,0,-0.0057,-0.0053,-0.0034,-0.0012,-0.0,0.0023,0.0071,0.0096,0.0132,0.0194,0.0215,0.0258,0.0329,0.0334,0.0374,0.0365,0.0402,0.0429,0.0434,0.0443,0.0414,0.0407,0.0508,0.0511,0.0513,0.0515,0.0516,0,-0.0053,-0.0045,-0.0015,0.0002,0.0019,0.0054,0.0083,0.0117,0.0151,0.0246,0.0282,0.0369,0.0454,0.0531,0.0558,0.0601,0.0511,0.0574,0.0519,0.0443,0.0442,0.0432,0.0423,0.055,0.0551,0.0553,0.0554,0,-0.0047,-0.0032,-0.0017,0.0024,0.0056,0.0087,0.0134,0.0167,0.0226,0.0294,0.0408,0.0493,0.0623,0.0694,0.0739,0.0728,0.0561,0.0605,0.0536,0.0488,0.0489,0.0485,0.0473,0.0566,0.0565,0.0564,0.0563,0.0563,-0.0035,-0.0024,0.0004,0.0045,0.0079,0.0125,0.0156,0.0221,0.0298,0.0421,0.0497,0.0611,0.0686,0.0786,0.076,0.0704,0.0766,0.0663,0.0655,0.0647,0.0638,0.0643,0.0748,0.0748,0.0747,0.0747,0.0747,0,-0.0024,-0.0007,0.0024,0.0066,0.0099,0.0129,0.0191,0.023,0.0332,0.0471,0.0602,0.0601,0.0721,0.0719,0.0739,0.0754,0.0678,0.0621,0.0541,0.0537,0.0531,0.0508,0.0587,0.0585,0.0583,0.0581,0,0,-0.0016,0.0003,0.0018,0.007,0.011,0.0156,0.0195,0.0281,0.0367,0.0482,0.0552,0.0733,0.0777,0.068,0.0703,0.0656,0.0548,0.0586,0.0746,0.0656,0.0646,0.0623,0.0594,0,0,0,0,0]},{"header":{"parameterUnit":"m.s-1","parameterCategory":2,"la1":30.2991,"la2":30.254,"lo1":-89.0895,"lo2":-89.0444,"dy":0.0017,"dx":0.0017,"nx":28,"ny":28,"refTime":"2024-04-18T21:00:00:Z","depth":"2","parameterNumber":3,"parameterNumberName":"V-component_of_CURRENTS"},"data":[0,0,0,0,0,0,0,0,0,0,0,0,0,0,0,0,0,0,0,0,0,0,0,0,0,0,0,0,0,0,0,0,0,0,0,0,0,0,0,0,0,0,0,0,0,0,0,0,0,0,0,0,0,0,0,0,0,0,-0.0099,-0.0099,0,-0.0088,-0.0088,-0.0088,-0.0103,-0.0103,-0.0104,-0.0105,-0.0103,-0.0102,-0.0101,0,0,0,0,0,0,0,0,0,0,0,0,0,-0.0109,-0.0108,-0.0099,-0.0099,-0.0099,-0.0089,-0.0088,-0.0088,-0.0103,-0.0103,-0.0104,-0.0105,-0.0103,-0.0102,-0.0101,0,0,0,0,0,0,0,0,0,0,0,0,0,-0.0101,-0.0108,-0.0099,-0.0106,-0.0106,-0.0089,-0.0088,-0.0088,-0.0102,-0.0103,-0.0104,-0.0105,-0.0103,-0.0102,-0.0101,-0.0077,0,0,-0.0098,-0.0098,0,0,0,0,0,0,0,0,-0.0101,-0.01,-0.0105,-0.0105,-0.0106,-0.0099,-0.0091,-0.0085,-0.0102,-0.0103,-0.0105,-0.0106,-0.0102,-0.0101,-0.0096,-0.0077,-0.0077,-0.0098,-0.0098,-0.0097,-0.0097,0,0,0,0,0,0,0,-0.0102,-0.0101,-0.0094,-0.0105,-0.0105,-0.0102,-0.0102,-0.009,-0.0097,-0.0103,-0.0104,-0.0104,-0.0103,-0.0096,-0.0096,-0.0077,-0.0098,-0.0097,-0.0097,-0.0096,-0.0072,-0.0072,0,0,0,0,0,0,-0.0105,-0.0101,-0.0094,-0.0093,-0.0107,-0.0101,-0.0101,-0.0099,-0.0097,-0.0097,-0.0104,-0.0105,-0.0098,-0.0097,-0.0096,-0.0093,-0.0097,-0.0096,-0.0096,-0.0072,-0.0072,-0.0072,0,0,0,0,0,0,-0.0106,-0.0105,-0.0094,-0.0098,-0.0097,-0.01,-0.0098,-0.0099,-0.0106,-0.0097,-0.0098,-0.0112,-0.0098,-0.0097,-0.0094,-0.0092,-0.0096,-0.0095,-0.0072,-0.0072,-0.0072,-0.007,0,0,0,0,0,0,-0.0106,-0.0105,-0.0109,-0.0098,-0.0097,-0.0086,-0.0097,-0.0098,-0.0104,-0.0107,-0.0104,-0.0105,-0.0099,-0.0095,-0.0093,-0.0091,-0.0094,-0.0073,-0.0072,-0.0072,-0.007,-0.007,-0.0069,0,0,0,0,0,-0.0106,-0.0101,-0.0109,-0.0108,-0.0101,-0.0085,-0.0084,-0.0089,-0.0104,-0.01,-0.0105,-0.0105,-0.0093,-0.0094,-0.0091,-0.0089,-0.0073,-0.0072,-0.0072,-0.007,-0.007,-0.0069,0,0,0,0,0,0,-0.0102,-0.0101,-0.011,-0.0105,-0.01,-0.0089,-0.0088,-0.0094,-0.0094,-0.0102,-0.0101,-0.01,-0.0096,-0.0093,-0.0094,-0.0082,-0.0084,-0.0083,-0.0083,-0.0083,-0.0083,-0.0075,-0.0094,0,0,0,0,0,-0.0105,-0.0104,-0.01,-0.0096,-0.0097,-0.0097,-0.0095,-0.0097,-0.0094,-0.0096,-0.0097,-0.0097,-0.0089,-0.0088,-0.008,-0.0071,-0.0068,-0.0069,-0.0069,-0.0069,-0.0061,-0.0055,-0.0053,-0.0072,-0.0072,-0.0072,0,0,-0.01,-0.0102,-0.01,-0.0096,-0.0096,-0.0085,-0.0098,-0.0094,-0.0086,-0.0095,-0.0091,-0.0095,-0.0087,-0.0078,-0.0076,-0.0077,-0.0064,-0.0069,-0.0068,-0.006,-0.0054,-0.0052,-0.0051,-0.0071,-0.0071,-0.0072,0,0,-0.0083,-0.0095,-0.0088,-0.0084,-0.0086,-0.0083,-0.0086,-0.0084,-0.0087,-0.008,-0.0087,-0.009,-0.008,-0.0073,-0.0068,-0.006,-0.0062,-0.0064,-0.0055,-0.005,-0.0048,-0.0046,-0.0048,-0.0047,-0.0065,-0.0065,-0.0065,0,-0.0082,-0.0073,-0.0082,-0.0073,-0.007,-0.0084,-0.0071,-0.0068,-0.0066,-0.0065,-0.008,-0.0073,-0.0074,-0.0056,-0.0058,-0.0058,-0.006,-0.0057,-0.0049,-0.0047,-0.0046,-0.0048,-0.0046,-0.0064,-0.0064,-0.0064,-0.0064,0,-0.0055,-0.0054,-0.0049,-0.0047,-0.0041,-0.0034,-0.0032,-0.0034,-0.0048,-0.0046,-0.0044,-0.0048,-0.0045,-0.0049,-0.0051,-0.004,-0.0047,-0.0049,-0.0049,-0.0043,-0.0047,-0.0045,-0.0064,-0.0064,-0.0064,-0.0064,0,0,-0.0045,-0.0033,-0.0036,-0.0032,-0.003,-0.0021,-0.0011,-0.0002,0.0001,-0.0008,-0.0001,-0.0001,-0.0018,-0.0014,-0.0023,-0.0021,-0.0021,-0.0033,-0.0033,-0.0035,-0.0016,-0.0054,-0.0057,-0.0024,-0.0023,-0.0023,-0.0025,0,-0.0028,-0.0007,-0.0006,0.0012,0.0022,0.0015,0.0027,0.0032,0.0027,0.0029,0.0019,0.0017,0.0001,-0.0011,-0.0008,-0.0017,-0.0015,-0.002,-0.0021,-0.0021,-0.0056,-0.0055,-0.0018,-0.002,-0.0024,-0.0024,-0.0023,0,-0.0008,0.0002,0.0023,0.0037,0.0039,0.0044,0.005,0.006,0.0064,0.0059,0.0054,0.0042,0.0039,0.0019,0.0017,0.0012,-0.0,-0.0007,-0.0007,-0.004,-0.0057,-0.0025,-0.0017,-0.0021,-0.0021,-0.0021,-0.0021,0,0.0,0.0019,0.0032,0.0038,0.0054,0.0053,0.0054,0.0061,0.0068,0.0065,0.0063,0.0064,0.0046,0.0046,0.0016,0.0017,0.0009,0.0012,-0.0029,-0.0032,0.0002,0.0,0.0017,0.0017,0.0017,0.0017,0.0017,0,0.0019,0.0027,0.0031,0.0039,0.0051,0.0054,0.006,0.0065,0.0068,0.0082,0.0066,0.0073,0.0049,0.0037,0.0026,-0.0006,0.0016,-0.0026,-0.0034,0.0001,-0.0,0.0003,0.0002,0.0017,0.0017,0.0017,0.0017,0,0.0027,0.0033,0.0047,0.0055,0.0054,0.0056,0.0058,0.0071,0.0063,0.0078,0.0073,0.0069,0.0047,0.0021,0.0009,-0.0008,-0.0023,-0.004,-0.0008,-0.0013,-0.0067,-0.0069,-0.0072,-0.0073,-0.0075,-0.0076,-0.0076,0,0.0038,0.0045,0.005,0.0059,0.0057,0.0057,0.0067,0.0066,0.008,0.0084,0.0097,0.0066,0.0079,0.0031,-0.0022,-0.0056,-0.0058,-0.0054,-0.0044,-0.0068,-0.0075,-0.0075,-0.0075,0.0005,0.0005,0.0005,0.0005,0,0.0059,0.0049,0.006,0.0073,0.0079,0.0096,0.0101,0.0118,0.0124,0.0148,0.018,0.0189,0.0105,0.0082,-0.0015,-0.0034,-0.0046,-0.0059,-0.0077,0.0008,0.0001,-0.0005,-0.0006,0.0005,0.0005,0.0005,0.0005,0.0005,0.0065,0.0076,0.0084,0.0097,0.0113,0.0144,0.0171,0.0199,0.0245,0.0309,0.0287,0.0318,0.0216,0.012,0.0029,-0.0083,-0.0076,-0.0066,-0.0064,-0.0061,-0.0066,-0.0076,-0.0088,-0.0088,-0.0089,-0.0089,-0.0089,0,0.0078,0.0092,0.0114,0.0141,0.0171,0.0162,0.0211,0.0262,0.0347,0.0419,0.0476,0.0396,0.0338,0.0193,0.003,-0.0062,-0.0051,-0.0083,-0.003,-0.0029,-0.0027,-0.0029,-0.0042,-0.0042,-0.0042,-0.0043,0,0,0.0091,0.0116,0.0132,0.019,0.0207,0.0256,0.0293,0.0387,0.0464,0.0565,0.0589,0.0617,0.0412,0.0313,0.0172,0.0072,0.0056,0.0057,0.0036,0.0123,0.0126,0.0002,0.0003,0,0,0,0,0]}],[{"header":{"parameterUnit":"m.s-1","parameterCategory":2,"la1":30.2991,"la2":30.254,"lo1":-89.0895,"lo2":-89.0444,"dy":0.0017,"dx":0.0017,"nx":28,"ny":28,"refTime":"2024-04-18T21:00:00:Z","depth":"4","parameterNumber":2,"parameterNumberName":"U-component_of_CURRENTS"},"data":[0,0,0,0,0,0,0,0,0,0,0,0,0,0,0,0,0,0,0,0,0,0,0,0,0,0,0,0,0,0,0,0,0,0,0,0,0,0,0,0,0,0,0,0,0,0,0,0,0,0,0,0,0,0,0,0,0,0,0.0069,0.0069,0,0.0049,0.0049,0.0049,0.0035,0.0035,0.0035,0.0035,-0.0023,-0.0025,-0.0026,0,0,0,0,0,0,0,0,0,0,0,0,0,0.0069,0.007,0.0069,0.0069,0.0069,0.0049,0.0049,0.0049,0.0035,0.0035,0.0035,0.0035,-0.0023,-0.0025,-0.0027,0,0,0,0,0,0,0,0,0,0,0,0,0,0.006,0.007,0.0069,0.0061,0.006,0.005,0.0049,0.0049,0.0035,0.0035,0.0035,0.0035,-0.0022,-0.0024,-0.0027,-0.0042,0,0,-0.0034,-0.0035,0,0,0,0,0,0,0,0,0.0061,0.006,0.0062,0.0061,0.0061,0.0046,0.0028,0.0017,0.0035,0.0043,0.0035,0.0035,-0.0003,-0.0007,-0.0012,-0.0045,-0.0048,-0.0034,-0.0036,-0.0037,-0.0037,0,0,0,0,0,0,0,0.0061,0.0061,0.006,0.0062,0.0061,0.0049,0.0048,0.0026,0.0018,0.0042,0.0042,0.0042,-0.0004,-0.001,-0.0014,-0.0049,-0.0034,-0.0036,-0.0038,-0.0039,-0.0137,-0.0138,0,0,0,0,0,0,0.0068,0.0061,0.0061,0.0059,0.0062,0.005,0.0048,0.0049,0.0019,0.0016,0.0042,0.0041,-0.0006,-0.0011,-0.0016,-0.0079,-0.0037,-0.0039,-0.004,-0.0136,-0.0138,-0.0139,0,0,0,0,0,0,0.0068,0.0068,0.0061,0.0061,0.006,0.005,0.0051,0.0049,0.0036,0.002,0.0015,0.003,-0.0006,-0.0012,-0.0045,-0.008,-0.004,-0.0042,-0.0135,-0.0137,-0.0138,-0.0178,0,0,0,0,0,0,0.0068,0.0068,0.0068,0.0062,0.006,0.0053,0.0051,0.0049,0.0037,0.0036,0.0008,0.0003,-0.0006,-0.0041,-0.0047,-0.0082,-0.0044,-0.0133,-0.0136,-0.0138,-0.0175,-0.0181,-0.0186,0,0,0,0,0,0.0068,0.0068,0.0068,0.0067,0.006,0.0053,0.0051,0.0043,0.0037,0.0031,0.0008,0.0004,-0.006,-0.0044,-0.005,-0.0087,-0.0132,-0.0135,-0.0137,-0.0173,-0.018,-0.0186,0,0,0,0,0,0,0.0065,0.0067,0.0066,0.0066,0.0059,0.0051,0.0045,0.0038,0.0016,0.0007,-0.0008,-0.0014,-0.0058,-0.0064,-0.0046,-0.0122,-0.0099,-0.0103,-0.0123,-0.013,-0.0135,-0.011,-0.0046,0,0,0,0,0,0.0065,0.0066,0.0064,0.0062,0.006,0.005,0.0044,0.0035,0.0018,0.0009,-0.0014,-0.0042,-0.0074,-0.0093,-0.0117,-0.0156,-0.0129,-0.0185,-0.019,-0.0195,-0.0179,-0.0174,-0.0177,-0.0148,-0.0148,-0.0148,0,0,0.0062,0.0063,0.0063,0.0061,0.0055,0.0044,0.0046,0.0032,0.001,0.0004,-0.0038,-0.0062,-0.0087,-0.0133,-0.0154,-0.0143,-0.0189,-0.0198,-0.0202,-0.0183,-0.0177,-0.018,-0.0182,-0.0149,-0.0149,-0.0149,0,0,0.0059,0.0059,0.0059,0.0052,0.0042,0.0034,0.0028,0.001,-0.001,-0.0048,-0.0065,-0.01,-0.0149,-0.0172,-0.0191,-0.0238,-0.0216,-0.0258,-0.027,-0.0266,-0.0268,-0.0269,-0.0232,-0.023,-0.0263,-0.0263,-0.0263,0,0.0054,0.0055,0.0056,0.005,0.0039,0.0028,0.0015,-0.0007,-0.004,-0.0063,-0.0067,-0.0143,-0.0165,-0.0218,-0.0235,-0.025,-0.0229,-0.0245,-0.0271,-0.0272,-0.0272,-0.0234,-0.0231,-0.0266,-0.0265,-0.0265,-0.0265,0,0.0052,0.0047,0.0044,0.0033,0.002,0.0006,-0.002,-0.0048,-0.0077,-0.0102,-0.0161,-0.0189,-0.0227,-0.0255,-0.0259,-0.0291,-0.0267,-0.0276,-0.025,-0.0277,-0.0236,-0.0232,-0.0269,-0.0268,-0.0267,-0.0267,0,0,0.0056,0.0046,0.0043,0.0037,0.0007,-0.0001,-0.0047,-0.0085,-0.0114,-0.016,-0.0196,-0.0258,-0.0267,-0.0286,-0.0306,-0.0307,-0.0295,-0.0292,-0.0291,-0.0245,-0.0259,-0.021,-0.02,-0.0311,-0.0311,-0.031,-0.0225,0,0.0053,0.0048,0.0033,0.0011,0.0006,-0.0029,-0.0069,-0.0113,-0.015,-0.0189,-0.0231,-0.027,-0.0283,-0.0301,-0.0308,-0.0299,-0.0287,-0.0315,-0.0246,-0.0243,-0.019,-0.0195,-0.031,-0.0222,-0.0221,-0.022,-0.0219,0,0.0057,0.0053,0.0038,0.0006,-0.0003,-0.0034,-0.0091,-0.0131,-0.0193,-0.022,-0.0263,-0.0279,-0.0301,-0.0301,-0.0286,-0.0302,-0.0275,-0.0262,-0.0259,-0.0191,-0.0187,-0.0192,-0.0211,-0.0212,-0.0213,-0.0213,-0.0214,0,0.0076,0.0055,0.0044,0.0033,-0.0009,-0.0045,-0.0087,-0.0152,-0.0179,-0.0239,-0.024,-0.0282,-0.0276,-0.0274,-0.0234,-0.0262,-0.0187,-0.0227,-0.0153,-0.0148,-0.0198,-0.0198,-0.0198,-0.0198,-0.0198,-0.0198,-0.0199,0,0.0083,0.0075,0.0047,0.004,0.0008,-0.0043,-0.0093,-0.0139,-0.0191,-0.0189,-0.0253,-0.0225,-0.0264,-0.0224,-0.0215,-0.0149,-0.0168,-0.0136,-0.0124,-0.0217,-0.022,-0.0194,-0.0195,-0.0195,-0.0196,-0.0197,-0.0197,0,0.0103,0.009,0.008,0.0035,0.0017,-0.0017,-0.0083,-0.0102,-0.0163,-0.0153,-0.016,-0.017,-0.012,-0.0128,-0.0095,-0.0097,-0.0061,-0.0028,-0.0084,-0.008,-0.0032,-0.0036,0.0039,0.0042,0.0044,0.0045,0.0047,0,0.0112,0.0111,0.0086,0.0083,0.0055,0.0004,-0.0017,-0.0088,-0.0084,-0.0086,-0.0048,-0.0022,-0.0013,0.0064,0.004,0.0055,0.0051,0.0066,-0.003,-0.0012,-0.0008,-0.0015,-0.0022,0.005,0.005,0.0051,0.0052,0,0.0128,0.0121,0.0115,0.0112,0.0094,0.0081,0.0051,0.0054,0.0018,0.0,0.0062,0.0067,0.0131,0.0122,0.0144,0.015,0.0037,0.0086,0.008,-0.001,0.0002,0.0002,-0.0007,0.0059,0.0058,0.0057,0.0057,0,0.0139,0.0142,0.0142,0.0133,0.014,0.0148,0.0115,0.0133,0.0118,0.012,0.0171,0.0176,0.0183,0.0181,0.0211,0.0206,0.0174,0.014,0.013,0.0122,0.0101,0.0125,0.0247,0,0,0,0,0,0.015,0.0156,0.0163,0.0159,0.0178,0.0173,0.0176,0.0152,0.0148,0.0209,0.0173,0.0233,0.024,0.0238,0.0243,0.0229,0.0166,0.0233,0.0119,0.0098,0.009,0.0054,0,0,0,0,0,0,0.0154,0.0167,0.0168,0.0193,0.0199,0.0213,0.0211,0.0204,0.0224,0.0225,0.0231,0.0236,0.0241,0.0245,0.0247,0.0245,0.0172,0.0236,0.0236,0.0103,0.0095,0.0089,0.0049,0,0,0,0,0]},{"header":{"parameterUnit":"m.s-1","parameterCategory":2,"la1":30.2991,"la2":30.254,"lo1":-89.0895,"lo2":-89.0444,"dy":0.0017,"dx":0.0017,"nx":28,"ny":28,"refTime":"2024-04-18T21:00:00:Z","depth":"4","parameterNumber":3,"parameterNumberName":"V-component_of_CURRENTS"},"data":[0,0,0,0,0,0,0,0,0,0,0,0,0,0,0,0,0,0,0,0,0,0,0,0,0,0,0,0,0,0,0,0,0,0,0,0,0,0,0,0,0,0,0,0,0,0,0,0,0,0,0,0,0,0,0,0,0,0,0.0124,0.0124,0,0.0107,0.0107,0.0107,0.0143,0.0144,0.0145,0.0147,0.0141,0.014,0.0138,0,0,0,0,0,0,0,0,0,0,0,0,0,0.0146,0.0145,0.0124,0.0124,0.0124,0.0107,0.0107,0.0107,0.0143,0.0144,0.0146,0.0147,0.0141,0.014,0.0138,0,0,0,0,0,0,0,0,0,0,0,0,0,0.0133,0.0145,0.0124,0.014,0.0141,0.0107,0.0107,0.0107,0.0143,0.0144,0.0146,0.0148,0.0142,0.014,0.0138,0.0091,0,0,0.0132,0.0131,0,0,0,0,0,0,0,0,0.0134,0.0132,0.0138,0.0139,0.014,0.0129,0.0112,0.0102,0.0142,0.0142,0.0147,0.0149,0.0137,0.0135,0.0128,0.0091,0.009,0.0132,0.0131,0.013,0.013,0,0,0,0,0,0,0,0.0135,0.0133,0.0118,0.0138,0.0139,0.0133,0.0134,0.011,0.013,0.0142,0.0145,0.0142,0.0138,0.013,0.0128,0.009,0.0132,0.0131,0.0129,0.0129,0.0068,0.0068,0,0,0,0,0,0,0.0137,0.0134,0.0118,0.0117,0.0141,0.0132,0.0132,0.0131,0.013,0.0131,0.0141,0.0144,0.0132,0.013,0.0128,0.0132,0.013,0.0128,0.0127,0.0069,0.0068,0.0068,0,0,0,0,0,0,0.0138,0.0136,0.0119,0.0125,0.0123,0.013,0.0128,0.013,0.014,0.0129,0.0131,0.0152,0.0133,0.0131,0.0117,0.0131,0.0128,0.0126,0.007,0.0069,0.0068,0.0103,0,0,0,0,0,0,0.0138,0.0136,0.0137,0.0125,0.0123,0.0101,0.0126,0.0128,0.0135,0.014,0.0138,0.0139,0.0134,0.012,0.0115,0.0128,0.0124,0.007,0.0069,0.0068,0.0102,0.0103,0.0104,0,0,0,0,0,0.0139,0.0129,0.0137,0.0135,0.0123,0.01,0.0098,0.0109,0.0134,0.0128,0.0133,0.014,0.0112,0.0117,0.0112,0.0125,0.0071,0.0069,0.0068,0.0102,0.0103,0.0104,0,0,0,0,0,0,0.0138,0.0131,0.014,0.013,0.0119,0.0107,0.0102,0.0113,0.0112,0.0125,0.0125,0.0124,0.0119,0.0107,0.0114,0.0103,0.0095,0.0093,0.0122,0.0123,0.0124,0.0123,0.0123,0,0,0,0,0,0.0137,0.0131,0.0121,0.0113,0.0109,0.0109,0.0105,0.0113,0.0108,0.0112,0.0114,0.0112,0.0104,0.0104,0.0088,0.0075,0.0071,0.008,0.0081,0.0083,0.0076,0.0082,0.0084,0.0064,0.0064,0.0064,0,0,0.0134,0.013,0.0127,0.0113,0.0109,0.0085,0.0112,0.0105,0.0093,0.0108,0.01,0.0111,0.0099,0.0091,0.0089,0.0089,0.0085,0.0081,0.0083,0.0076,0.0081,0.0084,0.0085,0.0064,0.0064,0.0064,0,0,0.0114,0.0122,0.0107,0.0093,0.0086,0.0079,0.0081,0.0077,0.0086,0.0075,0.0091,0.0106,0.0088,0.0089,0.0086,0.0075,0.0087,0.0082,0.0093,0.01,0.0102,0.0104,0.0105,0.0107,0.0088,0.0089,0.0089,0,0.0112,0.0091,0.0097,0.0073,0.0059,0.0076,0.005,0.0048,0.0045,0.0049,0.0075,0.008,0.0082,0.0077,0.0091,0.0079,0.0089,0.0096,0.0103,0.0105,0.0106,0.0108,0.0109,0.009,0.009,0.009,0.009,0,0.0074,0.0058,0.0046,0.0022,0.0006,-0.0012,-0.0017,-0.0016,0.0009,0.0016,0.0033,0.0052,0.0064,0.0074,0.0085,0.01,0.0105,0.0104,0.0107,0.0111,0.0111,0.0112,0.0092,0.0092,0.0091,0.0091,0,0,0.0069,0.0028,0.0024,0.0004,-0.0019,-0.0038,-0.0057,-0.0071,-0.007,-0.0039,-0.003,-0.0004,0.0047,0.0046,0.0078,0.0096,0.0128,0.012,0.0119,0.0132,0.0151,0.0127,0.0125,0.0145,0.0145,0.0145,0.0151,0,0.0039,-0.0014,-0.0028,-0.0078,-0.0105,-0.0105,-0.0127,-0.0131,-0.0112,-0.0098,-0.0049,-0.0023,0.0024,0.0064,0.0088,0.0116,0.0132,0.0127,0.0135,0.0134,0.0121,0.0125,0.0145,0.0151,0.0151,0.0152,0.0152,0,0.0004,-0.0026,-0.008,-0.0124,-0.0135,-0.0159,-0.0177,-0.019,-0.0171,-0.0144,-0.0093,-0.0049,0.0003,0.0043,0.0097,0.0101,0.0131,0.0149,0.0149,0.0112,0.0111,0.0142,0.0153,0.0153,0.0153,0.0153,0.0153,0,-0.0007,-0.0063,-0.0105,-0.0123,-0.017,-0.0184,-0.0194,-0.0194,-0.0196,-0.0148,-0.0126,-0.0067,-0.0018,0.0028,0.0087,0.0106,0.0126,0.0146,0.0141,0.014,0.0147,0.0145,0.0167,0.0167,0.0167,0.0167,0.0167,0,-0.0038,-0.0071,-0.0109,-0.0135,-0.0174,-0.019,-0.0212,-0.0208,-0.0194,-0.0184,-0.0124,-0.01,-0.0013,0.0014,0.0067,0.0103,0.011,0.0138,0.0139,0.016,0.016,0.0148,0.0146,0.0167,0.0167,0.0167,0.0167,0,-0.0049,-0.0078,-0.0127,-0.0171,-0.0183,-0.02,-0.0223,-0.0228,-0.0206,-0.0187,-0.0161,-0.0117,-0.007,-0.0023,0.0036,0.0071,0.0104,0.0107,0.0114,0.0115,0.0123,0.0122,0.0119,0.0118,0.0117,0.0117,0.0116,0,-0.0067,-0.0092,-0.0144,-0.0163,-0.0181,-0.0206,-0.0219,-0.0221,-0.021,-0.0198,-0.0178,-0.0147,-0.0108,-0.0054,-0.001,0.0052,0.0065,0.0084,0.0125,0.0117,0.0117,0.0118,0.0118,0.0115,0.0115,0.0115,0.0114,0,-0.0091,-0.0102,-0.0134,-0.0162,-0.0184,-0.0212,-0.0214,-0.0216,-0.0201,-0.0205,-0.0167,-0.0134,-0.0109,-0.0055,-0.0024,0.0023,0.0079,0.0078,0.0081,0.0119,0.0112,0.0114,0.0115,0.0112,0.0112,0.0112,0.0113,0,-0.0096,-0.011,-0.0132,-0.0154,-0.0183,-0.0185,-0.0204,-0.0187,-0.0186,-0.0159,-0.0161,-0.0132,-0.0117,-0.0075,-0.0047,-0.0007,0.0024,0.0066,0.007,0.0073,0.0058,0.0042,0.0018,0,0,0,0,0,-0.0098,-0.0096,-0.0119,-0.0137,-0.0161,-0.0165,-0.0184,-0.0193,-0.0195,-0.0157,-0.0149,-0.012,-0.0076,-0.0076,-0.0035,-0.0061,0.0022,-0.0012,0.007,0.0098,0.0101,0.0088,0,0,0,0,0,0,-0.0097,-0.011,-0.0108,-0.0107,-0.0109,-0.0123,-0.0132,-0.0138,-0.0112,-0.0117,-0.0099,-0.0094,-0.0062,-0.0087,-0.0026,-0.0021,0.004,-0.0,0.0001,0.0096,0.0099,0.0101,0.0089,0,0,0,0,0]}]]